Location: NCO
(38.4404°N, 77.1340°W)
Time: 09:32:11
(UTC-05:00)

Envisat - Visible Passes

Search period start: 17 February 2019 00:00
Search period end: 27 February 2019 00:00
Orbit: 764 x 766 km, 98.2° (Epoch: 16 February)

Date Brightness Start Highest point End Pass type
(mag) Time Alt. Az. Time Alt. Az. Time Alt. Az.
17 Feb 6.7 06:14:25 10° ENE 06:15:23 10° E 06:16:22 10° E visible
17 Feb 3.3 19:02:47 10° S 19:07:50 70° WSW 19:12:55 10° NNW visible
18 Feb 3.1 18:26:16 10° SSE 18:31:09 51° ENE 18:36:04 10° N visible
18 Feb 5.8 20:07:13 10° SW 20:10:27 17° W 20:13:41 10° NW visible
19 Feb 4.5 19:28:44 10° SSW 19:33:26 38° W 19:38:11 10° NNW visible
20 Feb 3.0 18:51:32 10° SSE 18:56:37 89° W 19:01:44 10° NNW visible
21 Feb 3.4 18:15:17 10° SE 18:19:59 40° ENE 18:24:44 10° N visible
21 Feb 5.5 19:55:17 10° SW 19:59:08 22° W 20:03:00 10° NW visible
22 Feb 4.0 19:17:17 10° S 19:22:11 49° W 19:27:07 10° NNW visible
23 Feb 2.9 18:40:23 10° SSE 18:45:25 72° ENE 18:50:30 10° N visible
23 Feb 6.1 20:23:13 10° WSW 20:24:56 12° W 20:26:39 10° WNW visible
24 Feb 5.1 19:43:34 10° SSW 19:47:50 27° W 19:52:09 10° NW visible
25 Feb 6.6 06:16:44 10° ENE 06:18:33 12° E 06:20:24 10° ESE visible
25 Feb 3.5 19:05:56 10° S 19:10:57 63° W 19:16:00 10° NNW visible
26 Feb 3.1 18:29:18 10° SSE 18:34:15 57° ENE 18:39:14 10° N visible
26 Feb 5.9 20:10:42 10° SW 20:13:36 15° W 20:16:31 10° NW visible
